Temperature
15 15 15 15 15 15 15 15 15 15 15 16 15 16 16 15 15 15 15 15 15 15 15 15 15 15 15 15 15 15 15 15 14 14 14 14 14 14
15 15 15 15 15 15 15 15 15 15 15 15 15 15 15 15 15 15 15 15 15 15 15 15 15 15 15 15 14 14 14 14 14 14 14 14 14 14
15 15 15 15 15 14 14 15 15 14 14 14 15 15 15 15 15 15 15 15 15 14 14 14 14 14 14 14 14 14 14 14 14 14 14 14 13 13
15 15 15 15 14 14 14 14 14 14 14 14 14 14 14 14 14 14 14 14 14 14 14 14 14 14 14 14 14 14 14 14 13 13 13 13 13 13
14 14 14 14 14 14 14 14 14 14 14 14 14 14 14 14 14 14 14 14 14 13 13 14 13 13 13 13 13 13 13 13 13 13 13 13 13 13
14 14 14 14 14 14 14 14 14 14 14 14 14 13 13 13 13 13 13 13 13 13 13 13 13 13 13 13 13 13 13 13 13 13 12 12 12 12
13 14 14 14 14 14 14 14 14 14 13 13 13 13 13 13 13 13 13 13 13 12 12 12 12 12 12 12 12 12 12 12 12 12 12 12 12 12
13 13 13 14 14 14 14 14 14 13 13 13 13 13 13 13 13 13 13 13 12 12 12 12 12 12 12 12 12 12 12 12 12 12 11 11 11 11
13 13 13 13 13 13 13 13 13 13 13 13 13 13 13 13 13 13 13 13 12 12 12 11 11 11 11 11 11 11 11 11 11 11 11 11 10 10
13 13 13 13 13 13 13 13 13 13 13 13 13 13 13 13 13 13 13 12 12 12 12 11 11 11 10 10 10 10 10 10 10 10 10 10 10 10
13 13 13 13 13 13 13 13 13 13 13 13 13 13 13 13 13 13 12 12 12 11 11 11 11 10 10 10 10 10 10 10 10 10 9 9 9 9
12 13 13 13 13 13 13 13 13 13 12 12 13 12 12 12 12 12 12 12 12 11 11 11 11 10 10 9 9 9 9 9 9 9 9 9 9 8
12 12 12 13 13 13 13 13 12 12 12 12 12 12 12 12 12 12 12 12 12 11 11 11 10 10 10 9 9 9 9 9 9 8 8 8 8 8
12 12 12 12 12 12 12 12 12 12 12 12 12 12 11 11 11 11 11 11 11 11 11 11 11 10 10 9 9 8 8 8 8 8 8 8 8 8
12 12 12 12 12 12 12 12 12 12 12 12 11 11 11 11 11 11 11 11 11 11 10 10 10 10 10 10 9 8 8 8 8 8 7 7 7 7
11 11 11 11 11 11 11 11 11 11 11 11 11 11 11 10 10 10 10 10 10 10 10 10 10 10 10 9 9 8 8 8 7 7 7 7 7 7
11 11 11 11 11 11 11 11 11 11 11 11 10 10 10 10 10 10 10 10 10 9 9 9 9 9 9 9 9 8 8 7 7 7 7 6 7 7
10 10 10 10 10 10 10 10 10 10 10 10 10 10 10 10 9 9 9 9 9 9 9 9 9 8 8 8 8 8 8 7 7 7 6 6 6 6
10 10 10 10 10 10 10 10 10 10 10 10 10 10 10 9 9 9 9 9 9 9 8 8 8 8 8 8 8 7 7 7 7 6 6 6 6 6
10 10 10 10 10 10 10 10 10 10 10 9 9 9 9 9 9 9 9 9 9 8 8 8 8 8 8 8 8 7 7 7 7 7 6 6 6 6
10 10 10 10 10 10 10 10 10 9 9 9 9 9 9 9 9 9 9 8 8 8 8 8 8 8 8 8 7 7 7 7 7 7 7 7 7 7
10 10 10 10 10 10 10 10 9 9 9 9 9 9 9 9 9 8 8 8 8 8 8 8 8 8 7 7 7 7 7 7 7 7 7 7 7 7
10 10 10 11 11 10 10 10 9 9 9 9 9 9 8 8 8 8 8 8 8 8 8 8 7 7 7 7 7 7 7 7 7 7 7 7 7 7
Wind_Speed
7 7 5 5 5 5 4 4 4 3 3 2 1 1 2 5 7 5 6 12 14 13 12 11 10 9 8 6 5 4 4 4 4 4 5 5 5 5
5 6 6 5 5 5 4 4 4 4 3 2 2 1 1 3 5 3 4 10 12 12 11 10 9 8 6 5 4 4 4 5 5 6 6 5 6 6
4 5 6 6 5 5 4 4 3 3 3 1 1 1 1 1 2 2 4 7 8 9 8 8 7 5 4 2 2 3 4 4 5 5 6 6 6 6
3 4 4 5 5 5 4 4 4 3 3 3 2 1 1 1 1 1 2 5 7 8 7 6 6 5 4 3 2 0 1 2 3 3 3 4 5 6
4 4 4 5 5 4 4 4 4 3 3 3 2 1 1 1 1 1 2 4 7 8 8 8 9 9 8 7 6 4 3 3 3 3 3 3 3 4
5 4 4 4 4 4 4 4 4 4 3 3 3 2 2 2 2 2 3 3 4 6 9 11 12 13 12 11 9 8 7 6 5 5 4 4 4 4
5 5 5 6 6 4 4 4 4 4 4 3 3 2 2 2 2 2 4 4 4 4 6 6 8 9 10 11 11 11 10 9 8 7 7 7 7 6
5 5 5 7 8 9 9 8 6 4 4 3 3 4 3 2 3 4 4 4 3 3 5 6 7 7 9 10 12 12 12 11 10 10 10 10 9 9
4 4 5 6 6 6 8 9 9 8 5 4 5 3 3 2 3 4 3 4 4 4 6 5 5 6 8 11 13 13 13 12 11 11 10 10 9 9
5 5 5 6 5 6 8 8 9 8 6 6 6 5 4 3 3 4 5 6 6 4 4 4 3 4 6 9 12 14 14 13 12 12 11 10 10 9
7 8 7 7 9 9 8 9 9 7 11 13 12 11 11 11 7 5 5 6 5 2 2 3 3 3 3 3 8 12 14 14 15 14 13 11 9 8
7 8 12 10 9 8 7 7 7 5 5 6 7 8 8 9 9 5 4 5 4 3 1 3 3 3 3 2 3 6 8 11 13 15 15 15 13 8
6 6 7 11 12 11 8 6 6 5 5 6 6 6 6 6 6 7 6 5 5 3 2 3 2 2 3 2 2 2 3 3 5 8 12 15 17 15
6 5 6 10 12 11 8 8 8 6 5 6 6 6 5 5 5 6 10 12 10 6 5 4 3 2 3 3 2 1 3 5 5 4 6 9 12 14
5 7 6 7 8 7 9 8 6 5 5 6 5 4 4 4 4 5 8 11 13 14 13 11 5 4 4 4 3 2 2 3 5 4 4 4 4 6
4 5 7 8 6 5 5 6 5 5 5 5 4 4 3 4 4 3 4 5 6 6 12 17 14 8 5 6 5 4 3 2 2 3 3 3 6 10
3 0 2 3 4 5 4 4 4 4 5 4 4 4 4 4 3 3 3 4 5 4 4 5 12 14 10 6 5 4 3 2 1 1 2 2 2 7
4 3 4 4 4 4 4 4 4 4 4 4 4 3 3 3 3 2 3 5 5 4 3 2 3 3 3 6 6 3 2 1 0 1 1 1 0 3
3 3 4 4 3 3 4 4 3 3 3 3 3 3 3 3 3 3 3 4 4 4 3 1 1 1 2 2 2 4 2 1 1 1 1 0 1 2
2 3 3 3 3 3 3 3 3 3 2 3 3 3 3 3 3 3 4 4 3 3 3 3 3 3 2 3 3 1 2 2 1 1 2 1 1 2
2 2 3 2 2 3 3 3 3 2 2 2 3 2 2 2 3 4 4 3 2 2 4 2 1 1 1 2 3 1 1 2 2 2 0 1 2 2
3 3 2 2 2 2 2 1 1 2 1 2 2 1 2 2 3 3 3 2 1 3 4 3 1 0 1 1 1 3 3 3 3 3 3 3 3 2
3 3 3 2 2 2 1 1 1 2 2 2 2 1 1 1 1 2 2 2 3 3 3 3 2 0 0 0 0 1 2 3 3 2 4 11 12 12
Wind_Direction
190 189 187 192 193 193 184 177 176 191 220 213 204 72 90 113 145 168 178 191 193 197 200 202 203 203 204 210 224 247 265 275 277 279 285 286 290 293
183 186 185 185 186 182 178 177 175 174 189 196 183 167 133 149 162 176 177 182 190 195 199 200 201 202 204 214 230 247 264 271 271 271 275 280 284 288
185 184 182 175 173 173 168 169 174 168 179 179 157 145 151 126 145 186 166 163 170 180 185 186 188 186 183 198 230 256 268 278 280 276 279 280 280 282
154 150 151 151 148 151 159 165 170 171 162 166 158 145 139 127 141 164 150 148 142 153 159 158 153 139 126 118 102 41 303 300 295 297 299 296 293 294
109 123 129 137 146 152 156 156 158 152 140 147 150 150 132 133 121 121 121 113 126 135 126 116 112 104 97 89 79 68 54 40 23 8 355 343 332 325
78 90 104 119 140 154 156 152 147 142 141 142 145 147 143 142 130 127 112 103 106 115 105 103 100 90 82 76 72 69 64 57 51 46 40 32 20 8
71 82 95 102 101 113 127 134 136 138 143 143 141 128 128 126 141 131 117 104 85 102 103 98 94 82 72 67 65 66 66 63 60 58 56 53 48 46
71 78 98 101 102 97 96 96 103 121 125 126 124 122 126 129 127 126 127 123 105 102 99 89 83 74 66 65 67 68 67 66 65 64 63 62 60 57
69 74 92 94 97 101 95 85 71 70 94 117 116 120 123 135 131 128 129 117 114 126 105 93 85 80 75 69 70 68 66 64 64 65 65 66 68 69
63 61 74 75 77 85 94 82 69 55 68 86 94 83 81 86 106 121 119 102 94 90 98 99 96 89 87 78 72 71 68 66 65 66 65 65 69 78
63 57 58 65 68 84 97 97 91 78 74 86 93 90 80 74 79 94 105 115 114 102 73 98 121 111 101 91 80 74 73 72 69 65 60 59 68 80
61 58 54 57 60 82 96 99 101 104 104 94 84 77 72 69 75 87 109 119 120 111 79 91 142 135 116 114 120 93 79 76 73 67 60 57 55 66
60 56 47 53 62 69 78 90 99 103 98 94 84 71 62 56 55 63 76 103 107 100 123 109 137 130 114 126 105 103 98 90 82 70 63 62 61 61
60 56 51 57 61 63 66 64 67 78 86 83 78 70 67 60 53 57 69 73 76 86 82 91 113 127 117 114 113 72 52 53 69 79 78 68 64 63
63 63 60 61 59 59 56 55 63 75 83 89 89 84 79 75 63 61 63 69 62 60 58 61 74 90 101 112 121 116 87 37 39 51 67 79 71 62
68 67 64 64 62 51 53 58 61 75 91 97 100 95 88 78 75 86 96 91 73 51 50 59 67 77 83 86 97 92 83 81 29 28 48 59 75 85
357 64 80 73 66 59 55 56 65 70 75 80 95 95 90 84 79 79 89 93 98 94 68 53 73 77 73 78 89 89 91 81 65 16 33 45 72 107
21 64 75 73 75 78 77 64 60 59 65 79 86 96 106 108 97 77 93 104 110 107 105 106 106 84 69 46 43 88 87 91 80 334 9 49 35 128
35 71 81 81 77 78 79 81 74 64 57 70 81 85 92 99 101 90 88 97 107 117 119 110 83 110 137 132 2 39 83 83 358 318 298 242 212 191
61 77 79 75 73 77 81 84 80 65 62 71 71 68 71 87 92 93 91 93 109 117 103 68 55 55 91 144 158 156 69 91 72 351 317 309 287 156
107 90 91 90 80 78 76 81 90 83 74 77 78 61 62 80 88 98 103 101 104 117 118 116 181 215 275 76 98 139 213 157 142 155 39 12 343 338
126 126 115 109 109 106 100 86 118 126 107 102 105 75 62 88 109 117 133 149 126 113 124 152 202 329 49 80 143 170 193 226 224 212 215 199 176 208
160 153 150 152 142 139 168 218 215 173 156 144 148 153 122 96 116 129 132 127 122 128 138 155 170 139 100 102 120 161 175 195 204 224 260 239 232 238
Height
1507 1510 1513 1516 1519 1522 1525 1528 1531 1532 1534 1535 1537 1538 1539 1541 1543 1544 1546 1548 1550 1552 1553 1555 1556 1557 1558 1559 1560 1561 1561 1561 1561 1561 1561 1561 1560 1560
1503 1506 1509 1512 1515 1518 1521 1523 1526 1528 1530 1532 1533 1535 1536 1537 1539 1541 1543 1545 1546 1548 1550 1552 1553 1554 1555 1556 1557 1558 1558 1558 1558 1558 1558 1558 1557 1557
1501 1503 1506 1508 1511 1514 1517 1519 1522 1524 1526 1529 1530 1532 1534 1535 1536 1538 1540 1542 1543 1545 1546 1548 1550 1551 1552 1553 1554 1554 1555 1555 1555 1555 1554 1554 1554 1553
1499 1502 1504 1506 1509 1512 1514 1516 1519 1521 1523 1525 1527 1530 1531 1533 1534 1536 1538 1539 1540 1542 1544 1545 1547 1548 1549 1550 1551 1551 1551 1551 1551 1551 1550 1550 1550 1549
1499 1501 1503 1505 1508 1510 1512 1514 1516 1519 1521 1523 1525 1527 1529 1531 1532 1534 1536 1537 1538 1540 1542 1543 1544 1546 1547 1547 1548 1548 1548 1548 1548 1547 1547 1546 1546 1545
1499 1501 1503 1505 1507 1509 1511 1513 1515 1517 1519 1521 1523 1525 1527 1529 1531 1532 1534 1536 1537 1539 1540 1541 1543 1544 1544 1545 1546 1546 1546 1545 1545 1544 1543 1543 1542 1542
1500 1501 1503 1505 1506 1508 1510 1512 1514 1516 1518 1520 1522 1524 1526 1528 1530 1531 1533 1535 1536 1538 1539 1540 1541 1542 1543 1544 1544 1543 1543 1543 1542 1541 1540 1540 1539 1539
1501 1502 1504 1505 1507 1509 1511 1512 1514 1516 1518 1520 1522 1523 1525 1527 1529 1530 1532 1534 1536 1538 1539 1540 1541 1542 1542 1542 1542 1542 1541 1541 1540 1539 1539 1538 1537 1537
1503 1504 1505 1507 1508 1510 1511 1513 1515 1517 1519 1520 1522 1524 1525 1527 1528 1530 1532 1534 1535 1537 1539 1539 1541 1541 1542 1542 1542 1541 1541 1540 1539 1538 1537 1537 1536 1536
1505 1506 1507 1508 1510 1511 1513 1515 1516 1518 1519 1521 1522 1524 1526 1527 1528 1530 1531 1533 1535 1537 1539 1539 1541 1541 1542 1542 1542 1541 1540 1539 1539 1538 1537 1536 1535 1535
1507 1508 1509 1510 1512 1513 1515 1516 1518 1519 1521 1523 1524 1525 1527 1528 1529 1530 1532 1533 1535 1537 1539 1539 1540 1541 1542 1542 1542 1541 1541 1540 1539 1538 1537 1536 1535 1534
1509 1510 1511 1512 1514 1515 1516 1518 1519 1521 1523 1524 1525 1527 1528 1529 1530 1531 1532 1533 1535 1537 1538 1539 1540 1541 1542 1543 1542 1542 1541 1540 1539 1538 1537 1536 1535 1535
1511 1512 1513 1515 1516 1517 1519 1520 1522 1523 1525 1526 1527 1528 1529 1530 1531 1532 1533 1534 1536 1536 1538 1539 1540 1541 1541 1542 1542 1542 1541 1540 1539 1539 1538 1537 1536 1535
1514 1515 1516 1517 1518 1520 1521 1522 1524 1525 1526 1527 1528 1530 1531 1532 1532 1533 1534 1535 1536 1537 1538 1538 1539 1540 1541 1541 1542 1542 1542 1541 1540 1539 1538 1538 1536 1535
1517 1517 1518 1519 1520 1521 1523 1524 1525 1526 1527 1528 1529 1531 1532 1533 1533 1534 1535 1536 1536 1537 1538 1538 1539 1540 1540 1541 1541 1541 1541 1541 1541 1540 1539 1538 1536 1535
1519 1520 1521 1522 1523 1523 1525 1526 1527 1528 1529 1530 1531 1532 1533 1534 1534 1535 1536 1536 1537 1537 1538 1539 1540 1540 1540 1541 1541 1541 1541 1541 1541 1540 1539 1538 1537 1536
1522 1523 1523 1524 1525 1525 1526 1527 1528 1529 1530 1531 1532 1533 1533 1534 1535 1536 1536 1537 1538 1538 1539 1540 1540 1541 1541 1542 1541 1541 1541 1541 1540 1540 1539 1538 1537 1536
1524 1525 1525 1526 1527 1527 1528 1528 1529 1530 1531 1532 1533 1534 1534 1535 1536 1537 1537 1538 1538 1539 1539 1540 1541 1541 1542 1542 1542 1541 1541 1540 1540 1539 1539 1538 1538 1537
1526 1526 1526 1527 1528 1528 1529 1529 1530 1531 1532 1532 1533 1534 1535 1536 1536 1537 1537 1538 1539 1539 1540 1540 1541 1541 1541 1541 1542 1542 1541 1540 1540 1539 1539 1538 1538 1537
1526 1527 1527 1528 1528 1529 1529 1530 1530 1531 1532 1533 1533 1534 1535 1536 1536 1537 1537 1538 1538 1539 1539 1540 1540 1540 1541 1541 1541 1541 1540 1540 1539 1539 1538 1538 1537 1537
1527 1527 1527 1527 1528 1529 1529 1530 1530 1531 1532 1532 1533 1534 1534 1535 1536 1536 1537 1538 1538 1539 1539 1539 1539 1540 1540 1541 1540 1540 1540 1539 1539 1538 1538 1537 1536 1535
1526 1526 1526 1527 1527 1528 1528 1529 1530 1530 1531 1531 1532 1533 1533 1534 1535 1536 1536 1537 1538 1538 1538 1538 1538 1539 1539 1539 1539 1539 1539 1538 1538 1537 1537 1536 1535 1534
1525 1525 1525 1526 1526 1526 1527 1528 1529 1529 1530 1530 1531 1531 1532 1533 1534 1535 1535 1536 1537 1537 1537 1537 1538 1538 1538 1538 1538 1538 1538 1537 1536 1536 1536 1535 1534 1533